This is the latest recevied weather packets stored in our database for station/object KO4ZGL-13. If no packets are shown the sender has not sent any weather packets the latest 10 day(s).
| Time | Temp. | Humidity | Pressure | Rain* | Wind** | Luminosity | Snow |
|---|---|---|---|---|---|---|---|
| 1787696541 | 30° C | 79% | 1016.5 hPa | 0 mm | - | 99 W/m² | - |
| 1787696236 | 30° C | 77% | 1016.6 hPa | 0 mm | - | 100 W/m² | - |
| 1787695935 | 30.56° C | 77% | 1016.6 hPa | 0 mm | - | 117 W/m² | - |
| 1787695630 | 30.56° C | 77% | 1016.4 hPa | 0 mm | - | 126 W/m² | - |
| 1787695327 | 30.56° C | 76% | 1016.5 hPa | 0 mm | - | 103 W/m² | - |
| 1787695026 | 30.56° C | 75% | 1016.5 hPa | 0 mm | - | 232 W/m² | - |
| 1787694720 | 31.11° C | 75% | 1016.3 hPa | 0 mm | - | 209 W/m² | - |
| 1787694416 | 31.11° C | 75% | 1016.3 hPa | 0 mm | - | 223 W/m² | - |
| 1787694110 | 30.56° C | 77% | 1016.3 hPa | 0 mm | - | 305 W/m² | - |
| 1787693806 | 30.56° C | 77% | 1016.3 hPa | 0 mm | - | 314 W/m² | - |
| 1787693502 | 30° C | 79% | 1016.5 hPa | 0 mm | - | 330 W/m² | - |
| 1787693198 | 30° C | 80% | 1016.4 hPa | 0 mm | - | 132 W/m² | - |
| 1787692894 | 30° C | 80% | 1016.3 hPa | 0 mm | - | 133 W/m² | - |
| 1787692593 | 30.56° C | 80% | 1016.4 hPa | 0 mm | - | 138 W/m² | - |
| 1787692288 | 30.56° C | 79% | 1016.3 hPa | 0 mm | - | 141 W/m² | - |
| 1787691983 | 31.67° C | 77% | 1016.1 hPa | 0 mm | - | 178 W/m² | - |
| 1787691682 | 32.78° C | 73% | 1016.2 hPa | 0 mm | - | 308 W/m² | - |
| 1787691380 | 33.89° C | 70% | 1016 hPa | 0 mm | - | 430 W/m² | - |
| 1787691075 | 33.89° C | 63% | 1016.1 hPa | 0 mm | - | 434 W/m² | - |
| 1787690770 | 33.89° C | 65% | 1015.8 hPa | 0 mm | - | 416 W/m² | - |
| 1787690465 | 34.44° C | 65% | 1015.8 hPa | 0 mm | - | 467 W/m² | - |
| 1787690161 | 34.44° C | 58% | 1015.7 hPa | 0 mm | - | 456 W/m² | - |
| 1787689857 | 34.44° C | 63% | 1015.6 hPa | 0 mm | - | 470 W/m² | - |
| 1787689552 | 35° C | 63% | 1015.7 hPa | 0 mm | - | 527 W/m² | - |
| 1787689248 | 35° C | 57% | 1015.6 hPa | 0 mm | - | 520 W/m² | - |
* Rain latest hour (hover to see other rain measurements)
** Current wind speed in m/s (hover to see current wind gust speed)